Location: Colconda
(10.2500°N, 61.4333°W)
Time: 11:52:01
(UTC+00:00)

Daily predictions for brighter satellites

Satellite Brightness Start Highest point End
(mag) Time Altitude Azimuth Time Altitude Azimuth Time Altitude Azimuth
Ariane H10 4.1 21:46:55 10° SW 21:51:00 46° SSE 22:08:17 10° E
Cosmos 1025 Rocket 3.8 22:02:29 10° SSW 22:06:45 56° W 22:11:02 10° N
Intercosmos 25 3.8 22:06:20 10° N 22:10:10 70° E 22:16:06 10° S
ATLAS 2AS CENTAUR R/B 3.7 22:03:04 10° NW 22:10:25 57° WSW 22:17:06 10° S
Fermi 3.7 22:06:50 10° WNW 22:10:57 73° NNE 22:15:04 10° ESE
GPS 2-17 Rocket1 4.3 22:08:18 10° NW 22:12:24 27° N 22:16:26 10° ENE
Cosmos 2082 Rocket 2.4 22:06:56 10° N 22:12:25 50° ENE 22:17:55 10° SSE
Meteor 2-14 Rocket 4.4 22:09:36 10° N 22:15:43 79° E 22:21:48 10° S
GPS 2-14 Rocket1 2.9 22:15:12 10° WNW 22:19:00 49° NNE 22:22:55 10° E
COSMO-SKYMED 1 4.0 22:17:05 10° N 22:21:08 40° WNW 22:25:11 10° SSW
Cosmos 1743 3.0 22:18:57 10° N 22:22:45 72° W 22:26:33 10° S
SJ-6B 4.3 22:20:52 10° ESE 22:23:00 15° ENE 22:24:39 12° NE
Cosmos 2239 Rocket 4.4 22:17:14 10° N 22:23:20 70° E 22:29:25 10° S
Meteor 1-28 Rocket 3.6 22:21:21 10° N 22:25:05 66° WNW 22:28:48 10° SSW
YAOGAN 1 4.1 22:23:47 10° S 22:27:49 40° W 22:31:53 10° NNW
Cosmos 1484 Rocket 2.6 22:24:09 10° SSE 22:27:55 74° E 22:31:38 10° N
Cosmos 2369 Rocket 2.7 22:26:32 10° SSW 22:32:05 62° WNW 22:37:40 10° N
Palapa 6 Rocket 4.2 22:27:36 10° WNW 22:34:40 54° NNE 22:39:28 16° E
Cosmos 1821 Rocket 4.0 22:30:21 10° N 22:36:28 89° E 22:42:38 10° S
Cosmos 1602 Rocket 3.9 22:33:00 10° SSE 22:37:09 42° E 22:41:19 10° NNE
Ariane H10-3 4.3 22:41:02 10° WSW 22:44:43 68° S 22:58:42 14° E
Cosmos 1605 Rocket 4.0 22:41:26 10° N 22:47:26 54° E 22:53:22 10° SSE
GPS 2-15 Rocket1 3.6 22:43:57 10° W 22:48:42 59° SSW 22:52:52 13° ESE
DELTA 2 R/B (1) 3.9 22:43:26 10° WSW 22:48:57 61° NW 22:52:47 20° NE
Cosmos 2058 Rocket 3.2 22:45:21 10° N 22:49:37 49° E 22:53:51 10° SSE
Meteor 1-29 3.8 22:50:27 29° E 22:50:37 30° E 22:53:43 10° SSE
Meteor 2-9 Rocket 4.0 22:45:19 10° N 22:50:38 89° WSW 22:55:57 10° S
Cosmos 2228 3.5 22:51:25 17° NNE 22:54:21 39° E 22:58:27 10° SSE
METEOR-M 4.2 22:51:40 10° SSE 22:56:48 50° ENE 23:01:56 10° N
Cosmos 1943 Rocket 2.1 22:51:24 10° SSW 22:57:02 89° ESE 23:01:49 14° NNE
BREEZE-M DEB (TANK) 4.2 22:47:56 10° SSW 22:58:01 30° SE 22:59:58 23° ESE
Meteor 1-15 Rocket 4.2 22:54:26 10° N 23:00:13 86° E 23:05:54 10° S
ARIANE 44L R/B 3.3 23:00:10 10° W 23:05:29 32° SSW 23:06:32 23° SSE
Cosmos 1900 4.4 23:02:02 10° SSW 23:07:00 76° WNW 23:09:54 25° NNE
Cosmos 1190 Rocket 3.8 23:02:30 10° N 23:07:40 73° ENE 23:12:49 10° SSE
Cosmos 405 Rocket 2.9 23:04:10 10° S 23:08:07 50° E 23:08:10 50° E
Cosmos 1656 Rocket 3.9 23:07:13 10° S 23:12:21 45° ESE 23:13:06 42° E
Meteor 1-21 4.5 23:10:09 10° SSE 23:15:28 43° E 23:15:49 43° E
Resurs 01 Rocket 3.1 23:21:24 10° SSE 23:23:11 23° SSE 23:23:11 23° SSE
Spot 2 Rocket 3.6 23:30:18 10° SSE 23:34:27 58° SE 23:34:27 58° SE
Helios 1B rocket 4.0 23:37:01 24° NW 23:38:35 32° WNW 23:42:15 10° SW
Lacrosse 4 Rocket 2.0 23:35:37 10° SSW 23:39:53 58° W 23:39:53 58° W
Spelda 4.0 23:26:07 10° W 23:40:24 47° SSW 23:41:44 38° SSE
NOSS 3-4 (A) 3.9 23:39:19 10° NNW 23:46:47 85° WSW 23:54:32 10° SSE
NOSS 3-4 (C) 3.9 23:39:25 10° NNW 23:46:53 86° WSW 23:54:38 10° SSE
Ariane H10 3.2 23:41:32 10° WSW 23:51:00 45° S 23:51:01 45° S
Cosmos 1331 Rocket 4.3 23:47:13 10° SSW 23:51:42 63° SW 23:51:42 63° SW
ALOS 4.0 23:50:39 10° S 23:52:33 24° S 23:52:33 24° S
SWIFT 4.3 23:51:17 10° SW 23:53:19 25° SW 23:53:19 25° SW
